Вернуться в каталог

STARLINK-2743

АктивенСвязьVLEO
NORAD 48682·PAYLOAD·🇺🇸 United States

Запущен May 26, 2021 с Cape Canaveral Space Force Station

Loading…

Ближайшие Пролёты (ближайшие 24 часа)

TLE

СвежийSource: CelesTrak SupGP

Эпоха: Sep 14, 2026, 20:33 UTC

1 48682C 21044AW  26257.85673611  .00043331  00000+0  13939-2 0  2575
2 48682  53.1583 264.6627 0001319  95.0058  87.0954 15.31668232    10

Отслеживайте STARLINK-2743 в реальном времени с AllMySat

Download on the App Store